| time (UTC) | temp F | wind direction | speed knots | gust knots | rain 1hr in | rain 24hr in | rain mn in | humidity % | barometer mb |
| 20260905081735 | 77 | 0 | 0.0 | 0.0 | 0.00 | 0.00 | 0.00 | 53 | 1011.8 |
| 20260905081231 | 77 | 188 | 0.0 | 0.9 | 0.00 | 0.00 | 0.00 | 54 | 1011.8 |
| 20260905080725 | 76 | 306 | 0.0 | 0.9 | 0.00 | 0.00 | 0.00 | 55 | 1012.2 |
| 20260905080225 | 76 | 8 | 1.7 | 2.6 | 0.00 | 0.00 | 0.00 | 57 | 1011.9 |
| 20260905075724 | 76 | 15 | 1.7 | 1.7 | 0.00 | 0.00 | 0.00 | 56 | 1012.0 |
| 20260905075223 | 78 | 90 | 0.0 | 0.9 | 0.00 | 0.00 | 0.00 | 53 | 1012.1 |
| 20260905074722 | 79 | 158 | 1.7 | 1.7 | 0.00 | 0.00 | 0.00 | 52 | 1011.9 |
| 20260905074218 | 79 | 225 | 1.7 | 2.6 | 0.00 | 0.00 | 0.00 | 52 | 1011.9 |
| 20260905073714 | 79 | 248 | 0.0 | 3.5 | 0.00 | 0.00 | 0.00 | 51 | 1012.1 |
| 20260905073209 | 79 | 220 | 1.7 | 2.6 | 0.00 | 0.00 | 0.00 | 52 | 1012.0 |
| 20260905072708 | 79 | 194 | 0.0 | 2.6 | 0.00 | 0.00 | 0.00 | 52 | 1012.2 |
| 20260905072204 | 79 | 279 | 0.0 | 0.9 | 0.00 | 0.00 | 0.00 | 53 | 1012.1 |
| 20260905071700 | 79 | 246 | 0.0 | 0.9 | 0.00 | 0.00 | 0.00 | 53 | 1012.2 |
| 20260905071156 | 79 | 195 | 0.9 | 2.6 | 0.00 | 0.00 | 0.00 | 53 | 1012.4 |
| 20260905070651 | 79 | 260 | 1.7 | 2.6 | 0.00 | 0.00 | 0.00 | 53 | 1012.1 |
| 20260905070147 | 80 | 257 | 1.7 | 2.6 | 0.00 | 0.00 | 0.00 | 53 | 1012.0 |
| 20260905065645 | 80 | 270 | 0.0 | 3.5 | 0.00 | 0.00 | 0.00 | 52 | 1012.3 |
| 20260905065139 | 80 | 250 | 2.6 | 2.6 | 0.00 | 0.00 | 0.00 | 51 | 1012.3 |
| 20260905064634 | 80 | 185 | 2.6 | 4.3 | 0.00 | 0.00 | 0.00 | 53 | 1012.2 |
| 20260905064125 | 79 | 212 | 1.7 | 1.7 | 0.00 | 0.00 | 0.00 | 53 | 1012.6 |
| 20260905063623 | 78 | 74 | 0.0 | 0.0 | 0.00 | 0.00 | 0.00 | 53 | 1012.3 |
| 20260905063120 | 79 | 114 | 0.0 | 1.7 | 0.00 | 0.00 | 0.00 | 53 | 1012.3 |
| 20260905062615 | 79 | 254 | 0.0 | 0.0 | 0.00 | 0.00 | 0.00 | 52 | 1012.4 |
| 20260905062114 | 79 | 206 | 0.0 | 1.7 | 0.00 | 0.00 | 0.00 | 52 | 1012.3 |
| 20260905061609 | 80 | 200 | 0.0 | 2.6 | 0.00 | 0.00 | 0.00 | 50 | 1012.1 |
| 20260905061109 | 81 | 183 | 2.6 | 3.5 | 0.00 | 0.00 | 0.00 | 46 | 1012.1 |
| 20260905060605 | 80 | 0 | 0.9 | 2.6 | 0.00 | 0.00 | 0.00 | 47 | 1012.3 |
| 20260905060101 | 79 | 6 | 2.6 | 2.6 | 0.00 | 0.00 | 0.00 | 48 | 1012.2 |
| 20260905055559 | 80 | 60 | 0.0 | 1.7 | 0.00 | 0.00 | 0.00 | 47 | 1012.3 |
| 20260905055054 | 80 | 0 | 0.0 | 0.9 | 0.00 | 0.00 | 0.00 | 46 | 1012.1 |
| 20260905054550 | 81 | 0 | 0.0 | 1.7 | 0.00 | 0.00 | 0.00 | 46 | 1011.8 |
| 20260905054045 | 80 | 0 | 1.7 | 3.5 | 0.00 | 0.00 | 0.00 | 47 | 1012.1 |
| 20260905053544 | 82 | 294 | 0.0 | 0.9 | 0.00 | 0.00 | 0.00 | 46 | 1011.9 |
| 20260905053040 | 82 | 0 | 0.0 | 0.0 | 0.00 | 0.00 | 0.00 | 47 | 1011.9 |
| 20260905052539 | 82 | 0 | 0.0 | 1.7 | 0.00 | 0.00 | 0.00 | 46 | 1011.9 |
| 20260905052034 | 83 | 241 | 0.0 | 1.7 | 0.00 | 0.00 | 0.00 | 45 | 1012.1 |
| 20260905051530 | 83 | 261 | 0.0 | 0.0 | 0.00 | 0.00 | 0.00 | 45 | 1011.8 |
| 20260905051027 | 84 | 195 | 0.0 | 0.0 | 0.00 | 0.00 | 0.00 | 44 | 1012.0 |
| 20260905050522 | 84 | 246 | 0.9 | 0.9 | 0.00 | 0.00 | 0.00 | 44 | 1012.0 |
| 20260905050019 | 84 | 270 | 0.0 | 0.0 | 0.00 | 0.00 | 0.00 | 44 | 1012.2 |
| 20260905045513 | 84 | 270 | 0.0 | 0.0 | 0.00 | 0.00 | 0.00 | 44 | 1011.9 |
| 20260905045008 | 84 | 270 | 0.0 | 0.0 | 0.00 | 0.00 | 0.00 | 44 | 1011.8 |
| 20260905044503 | 84 | 270 | 0.0 | 0.0 | 0.00 | 0.00 | 0.00 | 44 | 1012.0 |
| 20260905044002 | 84 | 270 | 0.0 | 0.0 | 0.00 | 0.00 | 0.00 | 44 | 1012.0 |
| 20260905043502 | 84 | 15 | 0.0 | 0.0 | 0.00 | 0.00 | 0.00 | 44 | 1012.0 |
| 20260905042957 | 84 | 15 | 0.0 | 1.7 | 0.00 | 0.00 | 0.00 | 44 | 1011.8 |
| 20260905042450 | 84 | 55 | 2.6 | 2.6 | 0.00 | 0.00 | 0.00 | 44 | 1011.9 |
| 20260905041946 | 83 | 54 | 0.9 | 2.6 | 0.00 | 0.00 | 0.00 | 44 | 1012.1 |
| 20260905041442 | 83 | 49 | 1.7 | 1.7 | 0.00 | 0.00 | 0.00 | 44 | 1012.2 |
| 20260905040937 | 83 | 66 | 0.0 | 0.9 | 0.00 | 0.00 | 0.00 | 45 | 1011.9 |
| 20260905040436 | 83 | 74 | 0.0 | 1.7 | 0.00 | 0.00 | 0.00 | 45 | 1012.1 |
| 20260905035935 | 83 | 120 | 1.7 | 2.6 | 0.00 | 0.00 | 0.00 | 45 | 1011.9 |
| 20260905035431 | 82 | 81 | 0.0 | 0.9 | 0.00 | 0.00 | 0.00 | 45 | 1012.0 |
| 20260905034928 | 82 | 81 | 0.0 | 2.6 | 0.00 | 0.00 | 0.00 | 45 | 1012.1 |
| 20260905034423 | 82 | 90 | 0.0 | 0.0 | 0.00 | 0.00 | 0.00 | 45 | 1012.0 |
| 20260905033922 | 83 | 90 | 0.0 | 1.7 | 0.00 | 0.00 | 0.00 | 45 | 1011.9 |
| 20260905033417 | 84 | 157 | 0.0 | 1.7 | 0.00 | 0.00 | 0.00 | 45 | 1011.9 |
| 20260905032916 | 84 | 154 | 0.0 | 1.7 | 0.00 | 0.00 | 0.00 | 45 | 1011.9 |
| 20260905032412 | 84 | 90 | 0.0 | 2.6 | 0.00 | 0.00 | 0.00 | 45 | 1011.9 |
| 20260905031907 | 84 | 114 | 0.0 | 2.6 | 0.00 | 0.00 | 0.00 | 44 | 1011.5 |
| 20260905031403 | 85 | 90 | 0.0 | 2.6 | 0.00 | 0.00 | 0.00 | 44 | 1011.5 |
| 20260905030858 | 84 | 173 | 3.5 | 3.5 | 0.00 | 0.00 | 0.00 | 45 | 1011.4 |
| 20260905030354 | 84 | 151 | 1.7 | 2.6 | 0.00 | 0.00 | 0.00 | 45 | 1011.5 |
| 20260905025852 | 85 | 90 | 0.0 | 2.6 | 0.00 | 0.00 | 0.00 | 44 | 1011.2 |
| 20260905025348 | 85 | 147 | 1.7 | 3.5 | 0.00 | 0.00 | 0.00 | 44 | 1011.2 |
| 20260905024845 | 87 | 151 | 1.7 | 4.3 | 0.00 | 0.00 | 0.00 | 41 | 1011.1 |
| 20260905024344 | 87 | 81 | 0.0 | 0.9 | 0.00 | 0.00 | 0.00 | 41 | 1010.9 |
| 20260905023840 | 88 | 279 | 0.0 | 1.7 | 0.00 | 0.00 | 0.00 | 40 | 1010.6 |
| 20260905023335 | 87 | 23 | 0.0 | 0.9 | 0.00 | 0.00 | 0.00 | 39 | 1010.4 |
| 20260905022834 | 87 | 277 | 0.0 | 1.7 | 0.00 | 0.00 | 0.00 | 40 | 1010.7 |
| 20260905022330 | 87 | 90 | 0.0 | 0.0 | 0.00 | 0.00 | 0.00 | 40 | 1010.6 |
| 20260905021824 | 87 | 90 | 0.0 | 0.0 | 0.00 | 0.00 | 0.00 | 41 | 1010.6 |
| 20260905021320 | 87 | 0 | 0.0 | 0.0 | 0.00 | 0.00 | 0.00 | 41 | 1010.6 |
| 20260905020814 | 87 | 0 | 0.0 | 0.0 | 0.00 | 0.00 | 0.00 | 41 | 1010.3 |
| 20260905020309 | 87 | 276 | 0.0 | 1.7 | 0.00 | 0.00 | 0.00 | 41 | 1010.1 |
| 20260905015808 | 87 | 90 | 0.0 | 0.0 | 0.00 | 0.00 | 0.00 | 42 | 1010.1 |
| 20260905015306 | 88 | 246 | 0.0 | 1.7 | 0.00 | 0.00 | 0.00 | 42 | 1010.1 |
| 20260905014801 | 88 | 286 | 0.0 | 1.7 | 0.00 | 0.00 | 0.00 | 42 | 1009.9 |
| 20260905014258 | 88 | 278 | 0.0 | 2.6 | 0.00 | 0.00 | 0.00 | 42 | 1010.0 |
| 20260905013752 | 88 | 315 | 1.7 | 2.6 | 0.00 | 0.00 | 0.00 | 41 | 1010.1 |
| 20260905013249 | 89 | 304 | 0.0 | 4.3 | 0.00 | 0.00 | 0.00 | 39 | 1010.2 |
| 20260905012744 | 89 | 340 | 0.0 | 0.9 | 0.00 | 0.00 | 0.00 | 38 | 1010.1 |
| 20260905012239 | 90 | 66 | 0.0 | 2.6 | 0.00 | 0.00 | 0.00 | 36 | 1010.2 |
| 20260905011736 | 91 | 232 | 1.7 | 10.4 | 0.00 | 0.00 | 0.00 | 35 | 1010.0 |
| 20260905011232 | 90 | 270 | 0.0 | 0.9 | 0.00 | 0.00 | 0.00 | 36 | 1010.1 |
| 20260905010731 | 90 | 294 | 0.0 | 0.0 | 0.00 | 0.00 | 0.00 | 35 | 1009.7 |
| 20260905010226 | 91 | 0 | 0.0 | 0.9 | 0.00 | 0.00 | 0.00 | 36 | 1009.9 |
| 20260905005724 | 91 | 348 | 0.0 | 2.6 | 0.00 | 0.00 | 0.00 | 35 | 1010.0 |
| 20260905005219 | 92 | 335 | 0.0 | 5.2 | 0.00 | 0.00 | 0.00 | 35 | 1009.8 |
| 20260905004713 | 93 | 344 | 0.0 | 0.0 | 0.00 | 0.00 | 0.00 | 33 | 1009.8 |
| 20260905004208 | 93 | 90 | 0.0 | 0.9 | 0.00 | 0.00 | 0.00 | 32 | 1009.7 |
| 20260905003703 | 94 | 71 | 0.0 | 3.5 | 0.00 | 0.00 | 0.00 | 31 | 1009.7 |
| 20260905003159 | 95 | 209 | 0.0 | 2.6 | 0.00 | 0.00 | 0.00 | 30 | 1009.8 |
| 20260905002654 | 95 | 194 | 0.0 | 2.6 | 0.00 | 0.00 | 0.00 | 30 | 1009.6 |
| 20260905002154 | 95 | 237 | 1.7 | 3.5 | 0.00 | 0.00 | 0.00 | 30 | 1009.4 |
| 20260905001649 | 95 | 174 | 0.0 | 1.7 | 0.00 | 0.00 | 0.00 | 31 | 1009.4 |
| 20260905001148 | 95 | 255 | 0.0 | 0.9 | 0.00 | 0.00 | 0.00 | 31 | 1009.2 |
| 20260905000644 | 95 | 218 | 1.7 | 2.6 | 0.00 | 0.00 | 0.00 | 31 | 1009.4 |
| 20260905000140 | 96 | 230 | 2.6 | 2.6 | 0.00 | 0.00 | 0.00 | 29 | 1009.5 |
| 20260904235639 | 95 | 184 | 1.7 | 4.3 | 0.00 | 0.00 | 0.00 | 30 | 1009.5 |
| 20260904235139 | 95 | 186 | 0.9 | 2.6 | 0.00 | 0.00 | 0.00 | 30 | 1009.2 |
| 20260904234634 | 96 | 245 | 4.3 | 4.3 | 0.00 | 0.00 | 0.00 | 30 | 1009.2 |
| 20260904234130 | 96 | 159 | 0.0 | 2.6 | 0.00 | 0.00 | 0.00 | 29 | 1009.1 |
| 20260904233626 | 96 | 182 | 2.6 | 3.5 | 0.00 | 0.00 | 0.00 | 30 | 1009.4 |
| 20260904233121 | 97 | 239 | 2.6 | 5.2 | 0.00 | 0.00 | 0.00 | 28 | 1009.4 |
| 20260904232618 | 98 | 180 | 2.6 | 4.3 | 0.00 | 0.00 | 0.00 | 26 | 1008.8 |
| 20260904232114 | 98 | 217 | 1.7 | 5.2 | 0.00 | 0.00 | 0.00 | 26 | 1009.0 |
| 20260904231609 | 98 | 180 | 2.6 | 5.2 | 0.00 | 0.00 | 0.00 | 26 | 1009.0 |
| 20260904231109 | 99 | 151 | 3.5 | 7.0 | 0.00 | 0.00 | 0.00 | 26 | 1009.0 |
| 20260904230608 | 99 | 155 | 5.2 | 9.6 | 0.00 | 0.00 | 0.00 | 26 | 1008.9 |
| 20260904230104 | 100 | 171 | 3.5 | 7.8 | 0.00 | 0.00 | 0.00 | 25 | 1008.9 |
| 20260904225601 | 101 | 189 | 3.5 | 3.5 | 0.00 | 0.00 | 0.00 | 25 | 1009.0 |
| 20260904225056 | 100 | 182 | 4.3 | 6.1 | 0.00 | 0.00 | 0.00 | 25 | 1008.9 |
| 20260904224551 | 100 | 191 | 3.5 | 7.0 | 0.00 | 0.00 | 0.00 | 25 | 1009.0 |
| 20260904224046 | 100 | 180 | 2.6 | 7.0 | 0.00 | 0.00 | 0.00 | 25 | 1009.2 |
| 20260904223545 | 100 | 166 | 2.6 | 6.1 | 0.00 | 0.00 | 0.00 | 26 | 1008.9 |
| 20260904223041 | 100 | 154 | 2.6 | 4.3 | 0.00 | 0.00 | 0.00 | 26 | 1009.2 |
| 20260904222536 | 99 | 248 | 0.0 | 6.1 | 0.00 | 0.00 | 0.00 | 27 | 1009.2 |
| 20260904222032 | 100 | 236 | 4.3 | 6.1 | 0.00 | 0.00 | 0.00 | 26 | 1009.2 |
| 20260904221526 | 99 | 163 | 8.7 | 8.7 | 0.00 | 0.00 | 0.00 | 28 | 1009.4 |
| 20260904221021 | 99 | 160 | 2.6 | 4.3 | 0.00 | 0.00 | 0.00 | 28 | 1009.1 |
| 20260904220520 | 97 | 184 | 5.2 | 7.0 | 0.00 | 0.00 | 0.00 | 29 | 1009.4 |
| 20260904220017 | 97 | 198 | 2.6 | 4.3 | 0.00 | 0.00 | 0.00 | 29 | 1009.5 |
| 20260904215516 | 97 | 216 | 3.5 | 5.2 | 0.00 | 0.00 | 0.00 | 30 | 1009.2 |
| 20260904215012 | 97 | 168 | 4.3 | 4.3 | 0.00 | 0.00 | 0.00 | 28 | 1009.6 |
| 20260904214507 | 98 | 186 | 0.9 | 3.5 | 0.00 | 0.00 | 0.00 | 28 | 1009.5 |
| 20260904214002 | 98 | 182 | 5.2 | 9.6 | 0.00 | 0.00 | 0.00 | 28 | 1009.5 |
| 20260904213501 | 99 | 176 | 4.3 | 11.3 | 0.00 | 0.00 | 0.00 | 28 | 1009.5 |
| 20260904212957 | 100 | 183 | 4.3 | 11.3 | 0.00 | 0.00 | 0.00 | 27 | 1009.5 |
| 20260904212456 | 100 | 159 | 7.8 | 11.3 | 0.00 | 0.00 | 0.00 | 28 | 1009.5 |
| 20260904211951 | 98 | 180 | 3.5 | 8.7 | 0.00 | 0.00 | 0.00 | 30 | 1009.6 |
| 20260904211446 | 98 | 180 | 1.7 | 2.6 | 0.00 | 0.00 | 0.00 | 28 | 1009.6 |
| 20260904210942 | 97 | 108 | 2.6 | 4.3 | 0.00 | 0.00 | 0.00 | 29 | 1009.7 |
| 20260904210441 | 97 | 213 | 4.3 | 6.1 | 0.00 | 0.00 | 0.00 | 29 | 1009.9 |
| 20260904205937 | 98 | 159 | 1.7 | 6.1 | 0.00 | 0.00 | 0.00 | 28 | 1009.9 |
| 20260904205432 | 98 | 214 | 3.5 | 5.2 | 0.00 | 0.00 | 0.00 | 29 | 1010.0 |
| 20260904204929 | 99 | 213 | 2.6 | 5.2 | 0.00 | 0.00 | 0.00 | 26 | 1009.9 |
| 20260904204425 | 100 | 215 | 7.0 | 8.7 | 0.00 | 0.00 | 0.00 | 26 | 1010.0 |
| 20260904203921 | 100 | 167 | 4.3 | 7.8 | 0.00 | 0.00 | 0.00 | 27 | 1010.0 |
| 20260904203417 | 99 | 180 | 2.6 | 8.7 | 0.00 | 0.00 | 0.00 | 27 | 1009.9 |
| 20260904202912 | 102 | 180 | 4.3 | 5.2 | 0.00 | 0.00 | 0.00 | 26 | 1010.1 |
| 20260904202409 | 100 | 180 | 5.2 | 6.1 | 0.00 | 0.00 | 0.00 | 26 | 1010.1 |
| 20260904201904 | 98 | 166 | 7.0 | 7.0 | 0.00 | 0.00 | 0.00 | 27 | 1010.2 |
| 20260904201359 | 100 | 163 | 3.5 | 8.7 | 0.00 | 0.00 | 0.00 | 26 | 1010.6 |
| 20260904200854 | 102 | 117 | 0.0 | 6.1 | 0.00 | 0.00 | 0.00 | 25 | 1010.3 |
| 20260904200353 | 101 | 151 | 0.9 | 4.3 | 0.00 | 0.00 | 0.00 | 26 | 1010.4 |
| 20260904195848 | 98 | 165 | 4.3 | 7.0 | 0.00 | 0.00 | 0.00 | 27 | 1010.7 |
| 20260904195346 | 99 | 160 | 2.6 | 5.2 | 0.00 | 0.00 | 0.00 | 27 | 1010.7 |
| 20260904194841 | 100 | 148 | 1.7 | 5.2 | 0.00 | 0.00 | 0.00 | 26 | 1010.9 |
| 20260904194340 | 100 | 201 | 1.7 | 2.6 | 0.00 | 0.00 | 0.00 | 26 | 1010.8 |
| 20260904193836 | 100 | 156 | 7.0 | 11.3 | 0.00 | 0.00 | 0.00 | 27 | 1010.7 |
| 20260904193331 | 100 | 223 | 3.5 | 5.2 | 0.00 | 0.00 | 0.00 | 27 | 1011.1 |
| 20260904192826 | 100 | 169 | 3.5 | 7.0 | 0.00 | 0.00 | 0.00 | 27 | 1011.2 |
| 20260904192321 | 100 | 174 | 3.5 | 3.5 | 0.00 | 0.00 | 0.00 | 27 | 1011.2 |
| 20260904191818 | 100 | 70 | 3.5 | 3.5 | 0.00 | 0.00 | 0.00 | 27 | 1011.2 |
| 20260904191314 | 99 | 111 | 2.6 | 3.5 | 0.00 | 0.00 | 0.00 | 28 | 1011.3 |
| 20260904190811 | 99 | 223 | 4.3 | 9.6 | 0.00 | 0.00 | 0.00 | 28 | 1011.2 |
| 20260904190306 | 100 | 59 | 0.0 | 3.5 | 0.00 | 0.00 | 0.00 | 28 | 1011.3 |
| 20260904185803 | 99 | 68 | 0.0 | 4.3 | 0.00 | 0.00 | 0.00 | 28 | 1011.8 |
| 20260904185257 | 97 | 177 | 4.3 | 6.1 | 0.00 | 0.00 | 0.00 | 29 | 1011.6 |
| 20260904184756 | 97 | 182 | 3.5 | 7.8 | 0.00 | 0.00 | 0.00 | 29 | 1011.9 |
| 20260904184252 | 97 | 95 | 1.7 | 5.2 | 0.00 | 0.00 | 0.00 | 30 | 1011.9 |
| 20260904183747 | 97 | 192 | 1.7 | 5.2 | 0.00 | 0.00 | 0.00 | 30 | 1011.6 |
| 20260904183242 | 97 | 157 | 0.0 | 5.2 | 0.00 | 0.00 | 0.00 | 30 | 1012.0 |
| 20260904182738 | 98 | 206 | 0.0 | 5.2 | 0.00 | 0.00 | 0.00 | 30 | 1011.6 |
| 20260904182233 | 98 | 42 | 2.6 | 6.1 | 0.00 | 0.00 | 0.00 | 30 | 1012.2 |
| 20260904181728 | 96 | 188 | 0.9 | 4.3 | 0.00 | 0.00 | 0.00 | 31 | 1012.2 |
| 20260904181228 | 96 | 41 | 2.6 | 4.3 | 0.00 | 0.00 | 0.00 | 31 | 1012.2 |
| 20260904180723 | 96 | 244 | 2.6 | 5.2 | 0.00 | 0.00 | 0.00 | 31 | 1012.3 |
| 20260904180219 | 96 | 171 | 3.5 | 6.1 | 0.00 | 0.00 | 0.00 | 31 | 1012.4 |
| 20260904175717 | 97 | 194 | 4.3 | 7.0 | 0.00 | 0.00 | 0.00 | 30 | 1012.4 |
| 20260904175216 | 98 | 70 | 1.7 | 3.5 | 0.00 | 0.00 | 0.00 | 30 | 1012.3 |
| 20260904174711 | 98 | 180 | 1.7 | 3.5 | 0.00 | 0.00 | 0.00 | 30 | 1012.5 |
| 20260904174207 | 96 | 180 | 0.0 | 6.1 | 0.00 | 0.00 | 0.00 | 32 | 1012.9 |
| 20260904173702 | 95 | 152 | 1.7 | 7.0 | 0.00 | 0.00 | 0.00 | 32 | 1012.7 |
| 20260904173157 | 94 | 201 | 1.7 | 7.0 | 0.00 | 0.00 | 0.00 | 32 | 1013.1 |
| 20260904172654 | 96 | 161 | 4.3 | 4.3 | 0.00 | 0.00 | 0.00 | 30 | 1013.1 |
| 20260904172153 | 96 | 162 | 0.0 | 3.5 | 0.00 | 0.00 | 0.00 | 31 | 1013.0 |
| 20260904171649 | 95 | 160 | 0.0 | 4.3 | 0.00 | 0.00 | 0.00 | 32 | 1013.1 |
| 20260904171143 | 95 | 196 | 2.6 | 4.3 | 0.00 | 0.00 | 0.00 | 33 | 1013.0 |
| 20260904170640 | 94 | 277 | 2.6 | 5.2 | 0.00 | 0.00 | 0.00 | 35 | 1013.0 |
| 20260904170135 | 94 | 197 | 3.5 | 6.1 | 0.00 | 0.00 | 0.00 | 36 | 1013.0 |
| 20260904165633 | 95 | 196 | 1.7 | 3.5 | 0.00 | 0.00 | 0.00 | 34 | 1013.1 |
| 20260904165127 | 95 | 103 | 0.9 | 2.6 | 0.00 | 0.00 | 0.00 | 35 | 1013.1 |
| 20260904164622 | 94 | 252 | 0.0 | 1.7 | 0.00 | 0.00 | 0.00 | 35 | 1013.1 |
| 20260904164118 | 93 | 180 | 0.9 | 3.5 | 0.00 | 0.00 | 0.00 | 36 | 1013.1 |
| 20260904163612 | 93 | 209 | 0.9 | 4.3 | 0.00 | 0.00 | 0.00 | 37 | 1013.1 |
| 20260904163108 | 93 | 15 | 1.7 | 2.6 | 0.00 | 0.00 | 0.00 | 37 | 1013.0 |
| 20260904162603 | 94 | 249 | 2.6 | 3.5 | 0.00 | 0.00 | 0.00 | 36 | 1013.2 |
| 20260904162057 | 93 | 90 | 1.7 | 3.5 | 0.00 | 0.00 | 0.00 | 37 | 1013.2 |
| 20260904161552 | 93 | 159 | 1.7 | 4.3 | 0.00 | 0.00 | 0.00 | 38 | 1013.1 |
| 20260904161048 | 92 | 270 | 0.0 | 1.7 | 0.00 | 0.00 | 0.00 | 38 | 1013.0 |
| 20260904160543 | 92 | 168 | 0.0 | 5.2 | 0.00 | 0.00 | 0.00 | 39 | 1013.4 |
| 20260904160039 | 92 | 248 | 1.7 | 2.6 | 0.00 | 0.00 | 0.00 | 39 | 1013.0 |
| 20260904155537 | 92 | 173 | 0.0 | 2.6 | 0.00 | 0.00 | 0.00 | 40 | 1013.1 |
| 20260904155032 | 90 | 90 | 1.7 | 3.5 | 0.00 | 0.00 | 0.00 | 41 | 1013.1 |
| 20260904154526 | 89 | 203 | 2.6 | 4.3 | 0.00 | 0.00 | 0.00 | 43 | 1013.2 |
| 20260904154021 | 88 | 217 | 3.5 | 5.2 | 0.00 | 0.00 | 0.00 | 43 | 1013.1 |
| 20260904153521 | 88 | 250 | 0.0 | 5.2 | 0.00 | 0.00 | 0.00 | 44 | 1013.3 |
| 20260904153017 | 89 | 230 | 2.6 | 5.2 | 0.00 | 0.00 | 0.00 | 43 | 1013.1 |
| 20260904152513 | 88 | 229 | 0.0 | 5.2 | 0.00 | 0.00 | 0.00 | 44 | 1013.4 |
| 20260904152008 | 89 | 237 | 0.0 | 1.7 | 0.00 | 0.00 | 0.00 | 43 | 1013.3 |
| 20260904151502 | 88 | 336 | 1.7 | 3.5 | 0.00 | 0.00 | 0.00 | 44 | 1013.3 |
| 20260904150956 | 87 | 180 | 0.9 | 4.3 | 0.00 | 0.00 | 0.00 | 45 | 1013.3 |
| 20260904150452 | 87 | 172 | 0.0 | 4.3 | 0.00 | 0.00 | 0.00 | 46 | 1013.4 |
| 20260904145950 | 87 | 304 | 4.3 | 4.3 | 0.00 | 0.00 | 0.00 | 46 | 1013.5 |
| 20260904145446 | 87 | 300 | 0.0 | 2.6 | 0.00 | 0.00 | 0.00 | 46 | 1013.5 |
| 20260904144941 | 87 | 26 | 0.0 | 1.7 | 0.00 | 0.00 | 0.00 | 46 | 1013.4 |
| 20260904144437 | 85 | 276 | 0.0 | 2.6 | 0.00 | 0.00 | 0.00 | 48 | 1013.7 |
| 20260904143932 | 84 | 165 | 0.0 | 6.1 | 0.00 | 0.00 | 0.00 | 50 | 1013.4 |
| 20260904143429 | 84 | 75 | 0.0 | 4.3 | 0.00 | 0.00 | 0.00 | 50 | 1013.5 |
| 20260904142925 | 84 | 102 | 1.7 | 2.6 | 0.00 | 0.00 | 0.00 | 49 | 1013.4 |
| 20260904142421 | 83 | 270 | 0.9 | 8.7 | 0.00 | 0.00 | 0.00 | 51 | 1013.5 |
| 20260904141915 | 83 | 289 | 0.0 | 8.7 | 0.00 | 0.00 | 0.00 | 52 | 1013.4 |
| 20260904141410 | 83 | 254 | 0.0 | 6.1 | 0.00 | 0.00 | 0.00 | 52 | 1013.4 |
| 20260904140907 | 82 | 126 | 0.0 | 4.3 | 0.00 | 0.00 | 0.00 | 52 | 1013.4 |
| 20260904140401 | 82 | 325 | 2.6 | 7.8 | 0.00 | 0.00 | 0.00 | 53 | 1013.2 |
| 20260904135900 | 82 | 285 | 0.9 | 4.3 | 0.00 | 0.00 | 0.00 | 53 | 1013.2 |
| 20260904135355 | 81 | 305 | 1.7 | 4.3 | 0.00 | 0.00 | 0.00 | 54 | 1013.0 |
| 20260904134852 | 81 | 273 | 3.5 | 3.5 | 0.00 | 0.00 | 0.00 | 55 | 1013.3 |
| 20260904134351 | 80 | 288 | 0.0 | 4.3 | 0.00 | 0.00 | 0.00 | 55 | 1013.2 |
| 20260904133851 | 80 | 243 | 1.7 | 8.7 | 0.00 | 0.00 | 0.00 | 55 | 1013.3 |
| 20260904133347 | 81 | 90 | 0.0 | 2.6 | 0.00 | 0.00 | 0.00 | 55 | 1013.2 |
| 20260904132846 | 80 | 208 | 1.7 | 5.2 | 0.00 | 0.00 | 0.00 | 55 | 1013.3 |
| 20260904132341 | 80 | 286 | 4.3 | 4.3 | 0.00 | 0.00 | 0.00 | 55 | 1013.2 |
| 20260904131836 | 79 | 343 | 1.7 | 3.5 | 0.00 | 0.00 | 0.00 | 55 | 1013.0 |
| 20260904131331 | 79 | 221 | 1.7 | 4.3 | 0.00 | 0.00 | 0.00 | 56 | 1012.9 |
| 20260904130826 | 78 | 349 | 1.7 | 2.6 | 0.00 | 0.00 | 0.00 | 56 | 1013.0 |
| 20260904130325 | 78 | 198 | 0.9 | 3.5 | 0.00 | 0.00 | 0.00 | 57 | 1012.9 |
| 20260904125821 | 77 | 98 | 0.9 | 1.7 | 0.00 | 0.00 | 0.00 | 57 | 1012.7 |
| 20260904125317 | 77 | 248 | 1.7 | 2.6 | 0.00 | 0.00 | 0.00 | 58 | 1012.4 |
| 20260904124816 | 76 | 290 | 0.0 | 4.3 | 0.00 | 0.00 | 0.00 | 59 | 1012.6 |
| 20260904124313 | 75 | 353 | 0.0 | 0.0 | 0.00 | 0.00 | 0.00 | 58 | 1012.7 |
| 20260904123807 | 75 | 334 | 0.0 | 1.7 | 0.00 | 0.00 | 0.00 | 58 | 1012.5 |
| 20260904123303 | 75 | 131 | 1.7 | 1.7 | 0.00 | 0.00 | 0.00 | 57 | 1012.1 |
| 20260904122757 | 76 | 346 | 0.0 | 4.3 | 0.00 | 0.00 | 0.00 | 56 | 1012.2 |
| 20260904122256 | 76 | 0 | 0.0 | 1.7 | 0.00 | 0.00 | 0.00 | 56 | 1012.1 |
| 20260904121752 | 76 | 180 | 0.9 | 2.6 | 0.00 | 0.00 | 0.00 | 56 | 1012.1 |
| 20260904121248 | 75 | 36 | 1.7 | 2.6 | 0.00 | 0.00 | 0.00 | 57 | 1012.0 |
| 20260904120744 | 75 | 225 | 2.6 | 2.6 | 0.00 | 0.00 | 0.00 | 57 | 1012.2 |
| 20260904120240 | 75 | 291 | 0.0 | 1.7 | 0.00 | 0.00 | 0.00 | 57 | 1012.2 |
| 20260904115735 | 75 | 21 | 0.0 | 1.7 | 0.00 | 0.00 | 0.00 | 56 | 1011.9 |
| 20260904115230 | 75 | 240 | 0.0 | 2.6 | 0.00 | 0.00 | 0.00 | 56 | 1011.6 |
| 20260904114725 | 75 | 255 | 3.5 | 3.5 | 0.00 | 0.00 | 0.00 | 56 | 1012.0 |
| 20260904114225 | 75 | 66 | 0.0 | 0.9 | 0.00 | 0.00 | 0.00 | 56 | 1012.1 |
| 20260904113720 | 75 | 208 | 0.0 | 2.6 | 0.00 | 0.00 | 0.00 | 56 | 1012.0 |
| 20260904113218 | 75 | 60 | 0.9 | 1.7 | 0.00 | 0.00 | 0.00 | 56 | 1011.6 |
| 20260904112714 | 75 | 120 | 0.9 | 1.7 | 0.00 | 0.00 | 0.00 | 56 | 1011.8 |
| 20260904112209 | 75 | 234 | 0.0 | 2.6 | 0.00 | 0.00 | 0.00 | 57 | 1011.9 |
| 20260904111705 | 75 | 75 | 0.9 | 0.9 | 0.00 | 0.00 | 0.00 | 56 | 1012.0 |
| 20260904111200 | 75 | 310 | 2.6 | 3.5 | 0.00 | 0.00 | 0.00 | 56 | 1012.0 |
| 20260904110656 | 76 | 312 | 1.7 | 1.7 | 0.00 | 0.00 | 0.00 | 55 | 1011.8 |
| 20260904110155 | 76 | 286 | 0.0 | 2.6 | 0.00 | 0.00 | 0.00 | 55 | 1011.8 |
| 20260904105650 | 77 | 327 | 0.0 | 4.3 | 0.00 | 0.00 | 0.00 | 54 | 1011.5 |
| 20260904105145 | 78 | 353 | 0.0 | 6.1 | 0.00 | 0.00 | 0.00 | 53 | 1011.6 |
| 20260904104640 | 78 | 324 | 2.6 | 6.1 | 0.00 | 0.00 | 0.00 | 52 | 1011.8 |
| 20260904104130 | 77 | 300 | 0.0 | 7.0 | 0.00 | 0.00 | 0.00 | 53 | 1011.8 |
| 20260904103626 | 76 | 320 | 0.0 | 3.5 | 0.00 | 0.00 | 0.00 | 56 | 1011.8 |
| 20260904103122 | 74 | 168 | 0.0 | 0.9 | 0.00 | 0.00 | 0.00 | 58 | 1011.9 |
| 20260904102618 | 75 | 82 | 0.0 | 0.9 | 0.00 | 0.00 | 0.00 | 56 | 1011.8 |
| 20260904102113 | 76 | 145 | 0.9 | 1.7 | 0.00 | 0.00 | 0.00 | 56 | 1011.9 |
| 20260904101609 | 76 | 278 | 1.7 | 3.5 | 0.00 | 0.00 | 0.00 | 55 | 1011.6 |
| 20260904101105 | 75 | 299 | 2.6 | 4.3 | 0.00 | 0.00 | 0.00 | 56 | 1011.8 |
| 20260904100600 | 75 | 294 | 0.9 | 2.6 | 0.00 | 0.00 | 0.00 | 57 | 1011.9 |
| 20260904100055 | 73 | 7 | 0.0 | 1.7 | 0.00 | 0.00 | 0.00 | 60 | 1011.6 |
| 20260904095549 | 73 | 15 | 0.0 | 1.7 | 0.00 | 0.00 | 0.00 | 59 | 1011.9 |
| 20260904095044 | 74 | 0 | 0.0 | 0.0 | 0.00 | 0.00 | 0.00 | 58 | 1011.6 |
| 20260904094539 | 75 | 20 | 0.0 | 1.7 | 0.00 | 0.00 | 0.00 | 57 | 1011.8 |
| 20260904094034 | 75 | 243 | 0.0 | 2.6 | 0.00 | 0.00 | 0.00 | 57 | 1011.5 |
| 20260904093531 | 75 | 0 | 0.0 | 0.0 | 0.00 | 0.00 | 0.00 | 58 | 1011.8 |
| 20260904093031 | 75 | 172 | 0.0 | 0.9 | 0.00 | 0.00 | 0.00 | 57 | 1011.9 |
| 20260904092527 | 75 | 294 | 0.0 | 1.7 | 0.00 | 0.00 | 0.00 | 57 | 1012.0 |
| 20260904092023 | 76 | 303 | 0.0 | 2.6 | 0.00 | 0.00 | 0.00 | 56 | 1012.0 |
| 20260904091519 | 76 | 312 | 1.7 | 1.7 | 0.00 | 0.00 | 0.00 | 55 | 1012.1 |
| 20260904091018 | 76 | 326 | 0.0 | 1.7 | 0.00 | 0.00 | 0.00 | 55 | 1011.8 |
| 20260904090514 | 76 | 352 | 0.0 | 2.6 | 0.00 | 0.00 | 0.00 | 55 | 1012.0 |
| 20260904090010 | 76 | 276 | 1.7 | 2.6 | 0.00 | 0.00 | 0.00 | 56 | 1011.8 |
| 20260904085505 | 76 | 297 | 0.0 | 0.0 | 0.00 | 0.00 | 0.00 | 56 | 1011.8 |
| 20260904085004 | 76 | 297 | 0.0 | 0.0 | 0.00 | 0.00 | 0.00 | 55 | 1011.8 |
| 20260904084500 | 77 | 297 | 0.0 | 1.7 | 0.00 | 0.00 | 0.00 | 54 | 1011.8 |
| 20260904083955 | 77 | 270 | 0.0 | 1.7 | 0.00 | 0.00 | 0.00 | 54 | 1011.9 |
| 20260904083452 | 77 | 331 | 0.0 | 1.7 | 0.00 | 0.00 | 0.00 | 54 | 1011.9 |
| 20260904082947 | 77 | 287 | 1.7 | 3.5 | 0.00 | 0.00 | 0.00 | 54 | 1011.9 |
| 20260904082442 | 77 | 291 | 0.0 | 2.6 | 0.00 | 0.00 | 0.00 | 54 | 1011.9 |